Lapse_Rate
4.2 7.2 7.6 8.4 6.4 6.5 6.5 6.5 6.5 6.5 6.5 7.2 7.6 6.9 6.6 6.9 6.6 6.6 9.0 9.5 9.6 9.7 6.3 6.2 5.5 5.6 5.2 4.7 4.8 4.9 5.4 5.5 5.1 5.3 5.5 6.4 6.2 5.5 5.5 5.6 6.3 6.5 6.8 6.8 6.8 6.7 6.8 6.8 6.7
7.2 9.4 9.0 7.1 6.5 6.5 6.5 6.5 6.5 6.4 6.8 7.5 7.5 7.3 6.6 6.5 8.1 8.3 8.6 9.5 9.7 9.7 9.3 6.6 5.4 5.4 5.2 4.8 4.8 5.1 5.7 5.7 5.3 5.5 6.1 6.1 6.4 6.1 5.8 6.0 6.5 6.8 6.9 7.1 6.9 6.9 7.0 6.8 6.8
6.5 9.3 7.3 6.5 6.5 6.5 6.5 6.5 6.5 6.7 7.4 7.2 6.9 7.8 7.0 7.1 8.3 8.5 9.4 9.6 9.8 9.8 9.3 5.4 5.2 5.1 5.0 5.2 5.3 5.5 5.8 6.0 5.5 6.3 6.3 6.0 6.2 6.4 6.0 6.3 6.6 6.7 6.8 6.9 7.3 7.3 6.9 7.1 6.8
8.9 8.1 3.8 6.5 6.5 6.5 6.5 6.5 6.2 6.5 7.2 7.5 7.3 6.5 8.0 8.6 8.5 9.1 9.7 9.6 9.6 9.5 6.7 5.0 5.1 5.2 5.3 5.4 5.5 5.6 5.9 6.2 6.0 6.3 6.4 6.1 6.4 6.4 6.1 6.5 7.0 7.1 6.9 6.9 7.1 7.3 7.0 7.1 6.9
8.9 6.0 6.5 6.5 6.5 6.5 6.5 6.8 6.9 6.5 6.6 7.0 7.4 6.7 7.2 8.6 9.1 9.4 9.5 9.4 9.3 8.6 6.5 5.5 5.4 5.4 5.4 5.7 5.7 5.8 6.1 6.2 6.2 6.2 5.8 5.9 6.1 6.3 6.3 6.4 6.9 7.1 7.6 7.3 7.1 7.5 7.5 7.3 7.0
6.3 5.3 6.5 6.5 6.5 6.5 6.5 7.0 6.9 6.7 7.0 7.3 7.1 7.1 7.3 8.7 8.9 9.3 9.6 8.8 9.3 9.1 8.3 6.1 5.6 5.7 5.7 5.8 5.9 6.1 6.2 6.1 6.3 5.8 5.5 5.4 5.4 5.7 5.9 6.3 7.3 7.2 7.4 7.9 7.6 7.6 7.5 7.2 7.2
6.2 6.5 6.5 6.5 6.5 6.5 6.5 7.4 6.6 6.7 6.7 6.8 7.7 6.5 7.7 8.3 9.0 9.4 9.5 9.5 9.4 9.8 9.1 6.7 6.6 6.3 6.3 6.1 6.1 6.3 6.1 5.9 5.7 5.8 6.2 5.8 5.9 5.7 5.7 6.3 6.2 6.4 6.9 7.3 7.4 7.4 7.4 7.2 7.2
5.2 6.5 6.5 6.5 6.5 6.5 6.7 7.0 7.4 6.9 6.8 8.2 7.4 6.6 6.8 8.3 9.1 9.4 9.5 9.4 9.5 9.7 9.2 8.8 8.3 6.9 7.1 7.0 6.3 6.0 5.8 5.9 6.1 6.1 6.1 6.1 6.3 6.7 6.5 6.1 6.0 6.4 6.5 6.6 6.9 6.9 6.9 6.9 6.9
7.6 6.4 6.5 6.5 6.5 6.6 7.0 6.5 7.5 8.0 7.5 7.6 7.7 8.0 8.4 9.0 9.2 9.0 8.9 9.1 9.2 9.4 9.4 9.7 9.7 8.7 8.0 8.0 6.8 6.2 6.2 6.1 6.5 6.6 6.3 6.1 7.3 7.7 7.6 7.2 7.0 6.8 6.7 6.6 6.5 6.5 6.4 6.2 6.3
6.2 6.5 6.5 6.5 6.5 6.5 6.8 6.7 7.0 6.9 7.0 7.1 7.6 8.4 8.7 8.9 8.8 8.5 8.6 8.6 8.8 8.9 9.3 9.6 9.4 9.6 9.4 9.6 6.4 6.7 6.7 6.4 6.4 6.8 6.6 6.5 7.9 8.8 8.4 8.3 7.4 7.2 7.0 7.0 6.9 6.5 6.6 6.7 7.5
6.8 6.5 6.5 6.7 7.0 7.0 6.7 6.7 7.6 6.7 6.5 7.0 7.1 7.7 8.4 8.6 8.5 8.5 8.6 8.7 8.9 9.1 9.4 9.0 9.3 8.7 9.4 8.3 6.9 7.6 7.6 7.5 7.5 7.2 6.9 7.1 8.5 8.7 8.5 8.9 8.9 8.0 7.6 7.7 7.8 7.4 6.8 6.2 4.7
6.5 6.7 6.8 6.9 7.2 7.0 6.5 7.1 6.6 6.9 7.1 8.0 8.1 8.3 8.4 8.4 8.4 8.5 8.6 8.8 8.8 9.0 9.3 9.5 9.0 7.7 8.9 8.4 7.8 8.7 8.3 6.1 7.2 7.3 7.0 6.8 7.0 8.1 9.0 7.5 7.0 7.6 8.0 7.7 8.0 6.8 7.4 4.3 4.5
6.5 6.5 7.0 7.2 7.2 7.1 7.3 6.7 6.8 7.0 7.8 8.2 8.3 8.4 8.3 8.2 8.4 8.6 8.7 8.8 9.0 8.9 9.3 9.4 7.5 6.5 6.5 6.0 6.6 8.2 8.3 8.1 8.1 7.8 7.5 7.8 7.2 6.6 7.5 7.9 7.3 7.9 8.1 8.0 7.7 6.9 6.7 6.3 6.1
6.9 6.7 6.8 7.1 7.0 7.1 6.7 6.6 7.1 5.1 7.7 7.9 8.0 8.1 8.2 8.3 8.4 8.4 8.6 8.2 8.7 8.5 9.0 9.1 8.6 8.1 8.3 7.2 7.8 6.8 7.2 8.4 6.7 5.2 7.8 8.2 7.6 6.5 5.8 7.0 6.6 6.7 7.7 7.0 7.4 6.3 5.5 5.4 5.4
7.1 6.5 6.5 6.6 6.8 6.5 7.1 6.5 6.5 3.1 5.3 7.6 7.7 7.9 8.0 8.2 8.4 8.0 8.3 8.4 8.8 8.4 8.4 7.8 8.4 7.9 6.6 8.5 7.6 7.3 8.5 9.1 6.3 3.3 6.2 6.1 6.2 6.4 4.8 4.9 5.1 6.2 6.1 6.1 7.5 5.5 4.3 4.7 5.1
6.5 6.5 6.5 6.5 6.5 6.8 6.7 6.5 6.5 4.6 6.5 7.2 7.5 7.7 7.9 8.1 8.2 8.3 8.5 8.3 8.1 8.4 7.2 5.9 8.2 7.4 7.2 7.9 6.5 6.8 6.9 8.0 7.7 6.5 5.1 5.0 5.2 5.8 4.1 4.8 4.9 6.7 7.4 7.5 7.6 5.1 3.9 4.2 4.7
6.5 6.5 6.5 6.5 6.6 6.5 6.5 6.5 6.5 4.3 7.1 7.1 7.0 7.5 7.7 7.8 8.1 8.1 8.7 8.6 8.8 7.7 6.3 5.2 5.5 6.1 6.5 5.6 6.1 6.3 6.4 7.6 7.7 6.5 5.2 5.3 5.2 5.9 4.8 4.2 5.1 5.8 6.0 7.6 7.3 5.7 5.1 4.7 4.6
6.5 6.5 6.5 6.5 6.5 6.5 6.5 6.5 6.5 7.1 7.1 7.0 7.3 7.4 7.3 7.6 7.9 8.1 8.7 8.9 9.1 7.7 7.0 5.7 4.2 3.3 3.3 3.5 3.5 4.4 4.9 7.5 6.5 7.0 6.0 5.5 4.1 4.5 5.4 5.2 5.5 5.8 5.1 7.6 6.9 6.8 5.6 5.3 5.5
6.5 6.5 6.5 6.5 6.5 6.5 6.5 6.5 6.5 6.7 6.1 6.8 7.0 6.3 7.3 7.6 8.0 8.2 8.0 7.9 8.9 7.5 7.7 6.7 4.7 3.4 3.2 3.6 5.0 3.7 5.0 5.2 7.9 5.8 6.4 5.1 3.8 4.0 5.4 4.8 5.1 5.6 6.1 6.0 7.3 6.5 6.7 6.2 5.9
6.5 6.5 6.5 6.5 6.4 6.5 6.5 6.5 6.4 6.5 6.7 6.9 7.0 7.0 7.4 7.7 8.1 7.4 8.6 6.9 7.0 7.8 6.3 5.8 6.0 3.7 2.9 4.0 3.7 3.6 5.4 6.8 5.8 4.5 6.9 4.6 4.9 4.6 5.5 5.8 5.2 5.1 5.3 6.5 6.5 6.8 7.0 5.8 6.0
6.5 6.5 6.5 6.5 6.6 6.5 6.5 6.5 6.5 6.5 6.8 7.0 7.2 7.5 7.6 7.0 7.1 5.0 5.7 6.5 7.9 7.9 6.8 5.9 5.4 2.7 2.7 3.0 3.3 4.4 5.2 5.4 5.2 4.9 5.2 4.1 5.9 5.7 5.6 6.2 5.5 5.1 5.5 4.7 6.2 6.5 6.7 5.1 6.3
6.5 6.5 6.5 6.5 6.5 6.5 6.5 6.5 6.5 6.5 6.5 6.5 6.9 3.8 7.1 7.6 7.1 8.1 7.7 8.1 8.7 8.7 8.8 6.8 6.1 4.3 4.1 4.8 5.3 5.5 5.9 5.7 5.7 5.0 5.5 5.8 5.6 6.5 7.1 7.2 5.5 5.5 6.0 5.3 6.1 6.9 6.7 6.7 5.1
6.5 6.5 6.5 6.5 6.5 6.5 6.5 6.5 6.5 6.5 6.5 6.5 6.3 4.0 5.9 4.7 7.7 8.0 8.3 6.6 8.7 7.7 8.0 7.8 5.8 3.6 5.4 4.5 5.3 5.9 6.1 4.8 4.8 4.4 5.5 5.5 5.6 5.8 6.3 5.5 5.8 6.4 5.2 5.4 6.1 7.4 6.7 6.8 6.0
6.5 6.5 6.5 6.5 6.5 6.5 6.5 6.5 6.5 6.5 6.5 6.5 6.6 6.1 7.4 7.6 7.9 8.1 8.3 8.4 8.6 8.1 7.0 7.3 6.2 5.6 5.9 5.9 6.1 5.8 5.7 5.0 4.2 4.7 5.3 5.8 6.4 6.1 5.0 5.5 5.3 5.4 5.9 5.9 5.7 6.8 6.9 6.8 7.1
6.5 6.5 6.5 6.5 6.5 6.5 6.5 6.5 6.5 6.5 6.5 6.5 6.5 6.9 7.4 7.7 7.9 8.0 8.2 8.2 8.4 8.6 7.5 8.6 7.2 6.7 6.6 6.5 6.1 6.1 6.3 6.3 5.8 5.5 5.2 5.7 5.8 6.4 5.0 5.8 5.3 5.3 5.6 6.2 6.0 6.9 7.6 6.8 6.9
6.5 6.5 6.5 6.5 6.5 6.5 6.5 6.5 6.4 6.5 6.7 6.9 7.1 7.3 7.5 7.7 7.9 8.1 8.2 8.2 7.9 8.1 8.7 8.8 8.3 7.7 7.7 7.4 7.4 6.8 6.7 6.4 5.6 5.3 6.3 5.5 6.5 5.8 6.3 6.6 6.1 5.8 6.6 6.3 6.3 5.9 6.4 6.7 6.0
6.5 6.5 6.5 6.5 6.5 6.5 6.5 6.5 6.5 6.5 6.5 6.6 6.8 7.1 7.2 7.6 7.8 7.9 8.3 8.4 8.5 8.3 8.6 8.5 8.2 8.1 8.4 8.7 6.8 7.1 6.8 6.1 6.7 3.7 5.9 5.9 5.7 5.0 3.3 6.4 6.4 6.7 6.3 6.5 6.4 6.0 6.2 6.6 6.2
6.5 6.5 6.5 6.5 6.5 6.5 6.5 6.5 6.5 6.5 6.5 6.5 6.5 6.8 7.1 7.5 7.7 8.0 8.2 8.4 8.6 8.7 8.1 8.8 8.5 8.5 8.4 8.4 7.3 7.4 7.6 6.8 7.0 5.3 7.2 7.3 6.8 6.7 6.5 6.1 6.2 6.5 6.8 6.1 6.2 5.7 6.5 6.6 6.3
6.5 6.5 6.5 6.5 6.5 6.5 6.5 6.5 6.5 6.5 6.5 6.5 6.5 6.9 7.1 7.2 7.7 7.9 8.2 8.5 8.7 8.8 8.7 7.6 8.1 8.1 8.9 8.7 7.7 7.3 6.9 7.6 6.5 7.1 6.9 6.2 6.1 6.0 7.0 7.2 6.6 5.6 5.7 6.2 5.9 5.8 6.4 6.2 6.1
6.5 6.5 6.5 6.5 6.5 6.5 6.5 6.5 6.5 6.5 6.5 6.7 6.7 7.1 7.4 7.6 7.8 8.0 8.2 8.3 8.3 8.4 8.6 8.6 8.4 7.0 8.3 7.1 6.7 6.4 7.4 6.1 7.2 8.6 8.9 8.5 7.0 7.5 7.1 6.5 6.5 6.1 6.3 6.1 5.9 6.2 6.0 6.2 6.0
Wind_Speed
12 13 9 7 3 2 8 8 6 9 4 9 16 15 16 4 8 12 19 20 23 19 19 17 16 18 20 20 19 18 18 16 14 13 12 10 11 12 12 11 11 12 13 12 11 11 11 10 12
10 13 6 3 4 3 6 13 12 9 4 9 15 21 17 16 19 22 19 23 22 19 20 18 18 21 21 20 19 17 17 14 14 13 11 10 9 11 12 11 11 11 11 11 11 10 10 11 11
10 8 5 4 3 3 7 11 6 5 10 5 10 20 7 17 18 17 23 23 22 18 22 19 20 21 21 20 19 17 15 14 14 11 11 10 9 10 11 10 11 11 8 9 10 8 8 10 10
6 1 6 3 4 10 12 12 6 5 11 11 15 14 15 11 13 25 21 23 20 18 23 19 21 21 21 20 19 17 15 13 13 11 10 10 8 8 9 8 11 10 8 8 7 8 8 9 9
7 7 2 7 12 9 10 7 15 10 7 16 15 10 11 7 15 24 19 20 18 17 21 19 19 20 20 19 18 16 14 14 12 11 12 12 10 8 8 8 8 7 8 8 8 5 6 7 7
3 4 2 4 12 10 11 4 5 11 10 14 18 15 8 5 20 21 18 18 16 15 19 18 18 19 19 18 17 15 14 13 13 13 14 14 12 9 8 8 6 7 6 6 6 5 5 5 4
9 5 8 10 10 10 8 8 6 6 10 12 14 14 9 12 17 24 20 20 16 16 17 17 18 17 17 17 16 14 13 12 12 11 11 13 12 11 8 7 6 5 5 5 3 3 3 3 4
11 5 6 8 7 12 6 10 12 11 12 14 14 6 13 15 14 19 19 22 20 19 17 13 17 17 16 16 16 15 13 11 10 10 10 10 10 10 8 6 6 4 3 3 3 3 3 4 4
13 3 4 4 5 9 11 9 7 11 15 2 13 15 22 22 17 14 20 17 15 16 15 15 15 16 14 16 13 13 12 12 12 10 9 6 5 10 10 7 7 4 4 5 5 5 7 7 8
8 4 8 12 9 9 13 7 11 4 15 13 15 21 24 23 18 15 15 19 19 19 15 14 13 14 16 16 15 12 12 12 11 13 12 8 12 4 5 1 7 6 8 9 11 11 11 10 10
11 7 15 12 5 9 8 5 21 11 6 11 19 19 20 21 18 15 17 14 15 17 13 14 14 14 14 10 14 12 12 11 11 12 12 9 9 4 6 5 9 9 13 11 15 13 13 9 10
5 0 5 7 1 8 16 3 7 11 9 15 19 18 18 18 16 16 17 17 16 17 14 16 16 10 11 13 11 12 11 11 9 14 14 9 7 8 4 7 6 6 2 10 7 9 3 13 11
11 6 5 0 3 2 6 14 8 19 11 18 20 18 17 16 16 14 12 16 15 16 15 16 16 12 6 9 8 8 7 11 13 9 17 13 6 2 5 2 6 5 9 9 7 5 3 2 3
4 1 7 9 9 6 6 4 10 1 7 17 18 18 19 19 18 16 14 13 15 15 15 16 14 11 10 10 6 5 8 7 7 11 5 9 2 2 2 4 4 7 11 10 4 3 1 3 3
7 8 7 10 9 8 7 5 13 17 28 12 16 15 17 22 20 18 17 15 14 14 15 9 12 11 6 2 4 2 5 6 8 14 13 4 1 2 3 5 4 7 10 12 11 5 3 1 2
11 13 12 11 4 8 4 4 15 15 23 17 15 14 13 13 18 17 16 13 12 13 14 10 8 11 10 6 3 1 4 6 9 13 11 10 6 4 1 5 7 12 13 9 4 5 3 3 3
11 14 4 10 10 6 9 10 22 32 23 12 4 13 13 12 13 15 16 14 13 10 11 9 7 4 9 8 5 2 7 5 6 13 10 9 8 8 6 7 10 14 8 3 2 4 4 3 5
10 10 8 13 9 6 12 11 25 22 18 16 24 17 15 14 14 16 15 14 15 13 10 6 6 7 7 6 4 3 5 6 5 6 7 9 10 8 9 9 10 9 5 4 2 4 4 4 5
12 9 17 18 12 7 10 13 6 14 24 10 9 6 17 18 18 17 15 15 16 16 14 11 9 8 7 5 5 3 4 4 5 4 12 9 10 10 10 6 6 7 5 6 4 4 5 4 4
7 4 10 3 2 5 10 9 11 5 18 10 13 12 17 20 22 14 18 19 12 16 16 15 13 10 6 5 2 2 4 6 4 6 9 11 10 10 10 8 6 6 6 6 5 6 3 2 3
12 11 7 8 10 12 12 10 9 22 23 20 9 11 15 14 17 16 15 22 18 17 18 16 15 13 9 5 2 3 6 6 1 8 4 4 9 10 12 9 7 6 5 4 5 5 6 3 1
14 14 6 3 9 10 12 10 1 15 23 16 14 27 17 10 20 22 22 22 20 16 14 14 12 13 12 12 8 12 9 9 7 6 3 1 6 6 10 8 4 7 4 5 5 5 6 3 3
16 4 5 10 13 15 16 7 6 12 11 5 10 3 19 37 21 18 16 20 17 14 13 12 13 13 13 12 12 10 12 9 1 3 3 3 5 8 4 6 7 6 5 5 6 5 6 4 3
16 11 7 10 12 13 10 10 9 14 20 9 9 20 7 7 14 12 13 17 13 16 13 13 13 14 14 14 16 15 14 9 5 9 5 6 7 6 7 8 7 7 5 5 4 7 6 4 3
16 14 9 12 12 7 15 7 13 23 19 18 15 4 11 9 14 11 9 12 13 13 14 12 14 13 15 16 15 15 14 12 14 9 9 7 5 3 6 6 6 5 6 6 5 4 3 3 4
16 18 12 7 6 10 18 7 6 3 5 5 4 3 14 13 13 13 11 9 16 15 14 12 13 13 14 15 14 11 12 6 7 9 4 5 3 2 3 6 7 7 6 6 5 3 4 5 5
17 14 18 20 21 16 8 6 25 15 2 3 6 4 6 14 15 16 14 11 11 17 13 13 14 13 13 13 9 10 8 8 4 9 12 4 4 2 4 4 3 5 7 5 6 5 5 4 6
18 14 11 11 17 13 8 7 4 9 4 3 2 7 9 15 15 17 14 14 12 15 13 15 16 14 12 11 12 9 8 7 6 12 5 4 4 3 1 4 2 2 3 5 5 5 4 4 4
12 16 18 15 12 12 2 4 9 17 6 4 2 5 4 19 14 15 14 15 13 13 16 16 14 12 9 7 7 8 7 7 7 5 5 4 2 3 1 1 4 4 1 4 5 5 4 5 4
20 17 19 9 13 12 11 2 6 11 2 4 4 9 9 14 15 14 13 14 12 11 12 12 12 12 12 10 5 8 6 6 4 4 4 4 5 3 4 4 4 4 4 4 4 3 4 5 4
Wind_Direction
273 247 240 270 332 286 66 89 103 97 46 75 74 84 46 88 61 109 138 127 127 130 130 132 138 143 140 136 133 131 129 122 121 122 123 107 98 93 96 97 95 93 92 82 88 87 87 95 97
297 300 240 127 126 297 109 79 53 103 169 100 87 88 41 77 99 114 127 127 131 130 132 130 130 137 139 134 135 135 132 129 127 130 125 107 102 98 100 100 96 98 92 81 88 91 93 94 96
266 278 280 48 123 239 76 112 116 89 105 112 76 100 147 109 121 113 123 130 126 136 119 122 123 130 133 137 136 136 137 136 135 134 123 115 103 102 106 106 91 105 95 87 93 92 99 100 96
246 163 15 61 281 102 119 121 144 44 112 134 123 89 85 79 97 116 128 119 126 117 118 122 124 131 133 134 136 140 140 140 141 139 124 114 117 110 110 106 104 114 106 94 100 85 98 102 102
230 130 185 245 149 70 67 92 138 156 71 55 87 92 103 83 114 122 139 118 116 117 124 128 127 128 131 136 140 142 143 144 143 133 127 120 119 121 117 110 107 100 106 111 115 100 111 116 114
49 2 277 93 98 106 112 150 90 102 87 101 100 115 100 158 135 135 140 129 125 137 135 134 130 131 134 139 143 146 150 147 144 141 141 136 132 125 119 117 109 101 100 102 126 123 116 122 118
35 340 239 117 117 105 117 122 166 91 110 82 120 109 129 176 153 139 142 134 137 153 129 143 143 141 142 143 146 148 150 149 156 152 149 143 139 131 133 131 130 117 111 114 128 148 158 159 163
132 193 353 64 153 112 145 79 92 129 85 107 124 146 152 161 164 147 143 144 168 144 139 146 148 151 149 148 155 157 158 163 160 164 165 147 147 146 147 158 137 133 141 155 167 180 208 216 204
140 336 106 244 356 134 110 123 74 133 116 134 85 143 144 151 175 186 152 152 151 140 144 156 153 152 165 148 155 146 157 164 167 173 174 165 198 187 167 158 151 175 190 202 214 218 222 220 217
68 15 220 164 177 142 138 169 118 175 122 109 84 109 135 157 176 183 169 151 153 140 156 159 160 156 167 167 149 170 170 174 188 176 177 222 244 277 295 190 183 206 217 226 233 235 238 234 237
160 216 253 91 90 81 111 120 110 75 119 125 131 141 151 159 175 183 167 173 160 155 169 157 163 160 170 152 158 178 177 181 201 194 193 234 295 184 220 253 218 225 216 237 223 232 228 40 5
131 11 56 96 120 166 118 183 56 120 57 112 132 147 157 160 172 186 177 178 171 160 182 168 155 165 180 147 164 189 172 159 210 191 185 207 207 261 153 189 215 262 107 274 291 222 253 140 247
209 137 139 210 180 300 181 124 107 3 116 111 127 146 161 170 173 192 205 174 176 172 181 166 156 174 195 151 199 183 171 175 206 194 193 200 188 220 316 296 206 228 241 243 249 142 171 159 222
359 145 199 163 190 205 242 126 71 223 291 120 140 167 173 174 177 174 195 210 185 171 180 164 177 161 183 176 204 126 166 186 97 27 306 222 168 154 294 280 244 264 270 298 202 185 188 115 200
259 226 220 183 195 250 163 1 57 345 294 140 171 183 176 177 178 176 187 202 191 173 169 183 169 153 158 221 144 322 126 197 132 149 253 131 302 262 301 301 283 249 255 260 162 150 59 247 229
252 242 224 204 194 236 219 84 65 253 255 172 189 173 177 179 171 170 182 202 191 181 157 123 152 152 166 186 135 90 299 224 180 157 172 184 193 259 178 263 263 270 258 223 200 145 183 229 245
208 237 234 212 215 225 229 139 176 217 241 174 291 176 177 180 182 169 184 187 189 145 137 132 128 124 170 131 112 49 297 267 155 173 176 216 208 230 200 242 244 256 273 236 252 154 178 229 227
233 231 190 240 181 231 268 253 185 223 263 155 199 180 169 175 196 169 183 189 190 146 150 147 115 124 113 114 110 59 305 285 172 197 194 192 191 236 248 250 255 231 254 229 177 198 202 217 224
230 187 197 242 164 218 254 250 203 131 242 196 202 134 159 179 182 177 184 188 192 155 154 181 160 150 137 139 155 142 253 264 229 188 184 178 210 222 240 244 248 242 225 234 182 206 212 268 254
275 207 246 124 299 221 277 278 303 307 230 199 196 186 179 190 179 165 204 167 180 169 162 177 177 169 155 140 103 145 228 263 19 329 189 183 218 223 236 245 255 251 225 234 207 208 199 240 245
247 253 22 253 231 249 244 247 40 323 300 313 223 245 207 190 161 166 166 182 192 179 172 180 178 171 167 166 127 231 268 279 203 244 221 220 227 222 229 242 230 250 192 223 220 179 230 199 325
240 226 209 291 279 267 203 262 247 243 262 257 353 19 343 212 168 169 165 173 185 176 171 164 169 180 188 189 192 214 220 243 237 212 221 252 226 238 231 233 263 231 189 208 231 213 221 183 210
252 162 298 269 263 285 260 245 190 251 277 95 71 201 206 243 142 165 164 161 171 146 158 166 170 177 189 186 201 208 219 237 338 302 214 214 223 229 219 236 246 226 208 200 240 247 205 206 182
244 275 244 258 251 251 352 27 167 242 220 158 193 231 191 96 103 105 112 121 135 134 155 160 172 182 185 185 199 209 216 211 184 228 212 223 216 196 219 225 228 220 214 201 226 246 178 219 283
237 249 258 248 231 37 19 44 221 277 186 177 188 102 129 102 111 117 134 141 141 154 159 161 171 183 187 190 194 211 221 213 195 195 218 221 216 183 218 212 227 217 209 197 202 233 221 224 240
213 236 246 249 282 200 214 249 261 183 56 56 45 177 126 140 135 145 152 162 153 160 156 168 172 172 177 186 202 212 220 209 198 204 238 225 205 123 258 191 197 199 198 213 186 200 236 208 236
240 218 251 275 289 293 150 202 41 294 45 121 117 169 187 149 150 146 148 162 161 156 156 159 160 179 182 192 197 206 212 211 215 39 269 182 132 152 237 278 243 217 198 202 197 201 212 258 218
249 256 225 239 267 276 31 53 337 239 214 256 359 332 160 145 143 141 150 158 172 163 164 165 176 177 194 203 175 196 217 191 174 178 206 68 119 171 310 158 160 255 213 212 187 211 223 229 232
212 248 260 280 273 284 330 270 248 245 176 193 248 41 11 140 142 137 150 156 171 186 160 170 187 179 193 190 189 171 205 198 135 196 163 169 174 180 122 235 137 166 189 210 191 221 221 218 229
246 223 242 238 254 269 293 133 298 304 307 327 58 52 86 125 132 138 150 151 167 179 173 168 164 173 188 186 183 161 162 107 198 186 168 128 140 160 162 196 170 169 170 175 171 199 218 226 197